Location: Ago
(8.4667°N, 4.4833°E)
Time: 23:10:57
(UTC+00:00)

Palapa 6 Rocket - Pass Details

Date: 18 September 2020
Orbit: 485 x 1217 km, 22.7° (Epoch: 20 October)

Event Time Altitude Azimuth Distance (km) Brightness Sun altitude
Rises 18:33:34 0° 234° (SW) 2,527 7.1 -14.0°
Reaches altitude 10° 18:35:48 10° 227° (SW) 1,653 5.9 -14.6°
Maximum altitude 18:39:20 41° 155° (SSE) 734 3.2 -15.4°
Enters shadow 18:40:39 30° 109° (ESE) 934 3.4 -15.8°
